User: anonymous   Login
Location: Alto Pass Reservoir
(37.5801°N, 89.3084°W)
Time: 15:11:06
(UTC+00:00)
Language:

Cosmos 1666 - Orbit

View from above orbital plane
View from above orbital plane
View from above satellite
View from above satellite

Ground track
Ground track

The orbit data is extracted from the following two-line orbital elements,

1 15889U 85058A   22141.87888003  .00006306  00000-0  27978-3 0  9990
2 15889  82.4878   6.8983 0014295 277.8621  82.0991 15.21305382 15036
Epoch (UTC): 21 May 2022 21:05:35
Eccentricity: 0.0014295
inclination: 82.4878°
perigee height: 492 km
apogee height: 512 km
right ascension of ascending node: 6.8983°
argument of perigee: 277.8621°
revolutions per day: 15.21305382
mean anomaly at epoch: 82.0991°
orbit number at epoch: 1503

The dashed part of the orbit path shows where the satellite is in the earth's shadow,  

DLR